Wind_Speed
17 16 16 17 17 18 18 19 19 19 20 21 21 21 21 21 22 22 22 22 22 23 23 23 23 24 24 24 23 23 22 22 22 23 23 24 24 25
17 17 17 17 18 19 19 20 20 21 21 22 23 22 22 22 22 22 23 23 23 24 25 24 23 23 23 24 23 23 24 24 23 24 25 24 24 25
17 17 18 18 18 19 19 20 20 21 21 22 22 22 22 22 22 22 22 23 23 23 24 24 24 24 23 23 23 23 24 24 24 24 26 26 26 26
19 18 18 18 19 19 20 20 20 21 21 22 22 22 23 22 22 22 22 23 23 23 23 24 24 24 24 24 24 24 24 24 25 24 25 27 27 26
19 19 19 19 20 20 21 20 20 20 20 21 21 21 22 23 23 23 23 23 23 23 23 24 24 24 24 24 25 25 25 25 26 26 26 26 26 26
20 20 20 20 20 20 20 21 21 21 21 21 21 21 21 22 23 24 24 23 24 24 24 25 24 24 24 24 25 26 26 26 26 26 26 25 25 26
20 20 20 21 20 20 20 20 20 20 20 20 20 20 21 21 22 23 24 24 24 24 25 25 25 25 24 25 25 26 26 26 26 26 26 26 25 25
20 20 20 21 20 20 20 20 19 19 19 19 19 19 20 21 21 22 23 23 24 24 24 24 24 25 25 25 25 26 26 27 27 27 26 26 26 27
21 21 21 21 20 20 19 19 18 19 19 19 19 19 19 20 21 22 22 23 23 23 24 24 24 25 25 25 26 27 26 27 27 27 26 26 27 27
21 21 20 20 19 19 18 18 18 18 18 18 19 19 19 20 21 22 22 22 22 22 23 24 24 25 25 25 26 27 27 27 27 26 26 25 25 25
22 21 20 20 19 19 18 18 18 18 19 19 19 20 21 21 21 22 21 21 21 22 23 23 23 24 24 24 24 25 25 26 26 25 25 24 24 24
21 20 20 19 19 19 19 19 19 19 20 20 20 20 20 21 21 21 21 22 22 22 23 24 23 24 24 23 23 24 24 24 24 24 24 24 24 23
21 20 19 18 18 19 20 19 19 20 20 20 20 20 20 21 21 22 22 22 23 23 23 23 23 23 23 22 22 23 23 23 23 24 24 24 24 23
20 18 18 18 18 19 19 18 19 19 20 20 20 21 21 20 20 21 22 22 22 22 22 22 22 22 22 22 22 23 23 23 24 24 24 23 23 23
20 19 19 19 19 18 18 18 18 19 20 20 21 21 21 20 20 21 21 22 22 22 21 21 21 21 21 22 22 23 23 23 23 24 24 23 23 23
20 20 19 19 18 18 18 18 18 18 20 21 22 21 21 21 21 21 21 21 20 21 21 20 20 21 21 21 22 23 23 23 23 23 23 24 24 24
21 21 20 20 20 19 19 19 19 19 20 20 21 21 20 20 20 20 20 20 20 20 21 21 21 22 22 22 23 23 23 24 24 24 23 23 23 23
22 22 22 21 21 20 20 20 20 20 20 20 20 19 19 19 19 20 20 20 19 20 20 21 21 21 21 22 22 23 23 23 24 24 24 23 23 24
22 22 22 21 21 21 21 21 21 21 21 20 20 19 19 19 19 19 20 20 19 20 20 20 19 20 21 21 21 22 22 23 23 24 24 25 25 24
21 21 21 21 21 21 21 21 21 21 21 20 20 20 19 19 19 18 18 19 19 19 19 19 18 19 19 20 20 20 21 21 22 22 23 24 24 23
21 21 21 21 21 21 21 21 21 20 20 20 20 20 19 18 18 18 17 18 18 18 18 17 18 17 18 18 19 19 19 19 20 19 19 20 20 21
20 21 21 20 20 20 20 20 20 20 20 20 20 19 18 18 17 18 18 18 19 18 18 17 17 18 18 18 17 17 17 17 17 17 16 17 18 19
20 21 21 21 21 20 20 20 20 20 20 20 19 19 19 18 18 18 18 18 19 18 17 16 16 16 16 16 16 15 15 16 16 16 16 17 17 18
Wind_Direction
290 289 288 284 280 278 277 277 277 275 275 275 275 276 275 274 273 271 270 271 271 270 270 271 274 273 271 270 269 267 267 267 267 268 268 271 274 274
291 287 285 283 283 280 278 279 278 277 275 275 276 276 274 274 274 273 273 273 273 271 270 272 275 274 273 272 270 268 269 269 270 269 271 273 274 274
294 291 287 283 282 282 281 281 280 279 277 276 275 276 275 276 275 273 273 274 273 271 270 272 274 275 274 273 272 271 272 272 272 273 273 273 276 276
293 291 289 286 282 284 284 283 283 284 281 278 275 275 275 276 274 272 274 273 272 272 271 273 274 273 272 271 272 272 273 272 272 275 277 276 276 276
294 292 288 287 286 284 284 285 285 285 284 282 279 277 278 275 273 273 272 270 270 272 272 272 274 272 272 271 271 271 271 271 272 273 275 276 277 277
294 293 290 288 287 285 284 284 285 286 285 283 282 279 279 277 274 274 272 270 270 269 271 271 271 270 270 270 270 270 269 269 269 271 273 275 276 276
294 293 291 291 289 287 285 284 285 287 289 288 285 281 280 279 279 278 276 274 270 269 270 270 269 268 268 267 268 268 268 268 270 272 274 275 276 277
293 292 293 290 289 287 285 283 285 287 289 292 292 288 284 282 281 280 278 275 272 270 271 270 270 268 268 268 269 268 270 271 272 273 275 275 275 276
294 292 293 290 288 285 283 281 283 286 289 290 294 292 289 286 284 282 279 276 274 274 272 271 271 270 269 269 269 269 270 272 273 273 275 275 274 275
293 293 293 290 286 284 284 282 282 284 288 290 294 294 293 291 289 288 284 279 276 277 277 275 272 273 272 271 270 270 271 272 273 274 274 276 276 276
293 293 293 289 286 284 285 285 284 284 288 292 295 296 295 294 291 291 288 285 282 280 279 278 276 275 274 272 270 270 271 272 273 275 275 275 276 277
291 291 291 289 288 285 287 288 286 286 288 291 294 296 296 295 292 290 288 287 286 283 281 280 278 277 275 272 271 271 271 272 273 274 275 276 277 278
288 289 289 290 289 288 290 289 288 288 288 290 292 295 297 295 293 289 288 289 288 285 283 280 278 277 275 273 273 274 273 272 274 275 276 277 279 280
284 284 287 289 290 291 291 291 292 291 289 289 292 296 296 294 292 291 290 290 290 288 283 281 281 279 276 276 275 274 274 275 275 276 275 276 277 277
282 282 287 291 291 290 291 292 292 290 291 292 293 296 298 296 294 293 293 291 289 289 286 283 282 281 280 278 277 276 275 275 274 275 275 276 277 277
282 282 285 287 288 289 291 290 291 291 292 293 295 298 299 298 297 297 297 294 291 291 291 288 282 280 279 279 279 278 278 274 274 276 275 275 276 277
281 280 282 284 285 286 289 288 289 292 294 296 298 299 300 300 300 300 299 297 295 295 294 290 284 280 281 280 279 279 277 275 274 275 276 275 276 278
281 282 282 283 284 284 285 287 288 291 294 297 300 299 300 301 302 301 301 299 297 296 295 293 288 283 281 281 280 279 277 276 276 275 275 275 277 277
280 282 284 284 285 284 283 286 287 291 295 298 299 300 300 301 302 303 302 300 297 295 295 295 293 288 285 282 280 279 277 276 276 276 275 276 278 278
280 284 286 285 286 286 284 285 286 289 292 295 298 301 303 305 305 305 305 303 300 298 295 296 295 291 288 286 283 281 278 278 277 278 278 277 277 278
281 284 286 287 287 287 287 286 287 288 290 294 296 299 301 306 310 312 312 311 309 305 300 297 296 294 292 291 287 285 283 282 281 282 282 281 281 280
281 282 284 286 287 288 288 287 287 288 289 292 294 296 298 301 305 309 310 314 315 311 306 300 298 298 298 298 294 289 287 286 285 284 284 285 286 287
281 282 283 285 286 287 287 288 288 289 290 291 292 293 294 296 299 302 305 308 312 310 307 305 304 304 306 306 302 297 292 291 290 289 288 288 290 292
Height
5814 5813 5812 5812 5811 5811 5810 5810 5811 5811 5811 5810 5810 5810 5810 5810 5810 5810 5810 5810 5811 5811 5812 5812 5812 5813 5813 5813 5813 5813 5813 5813 5813 5813 5813 5813 5813 5812
5809 5808 5808 5807 5807 5806 5806 5805 5805 5805 5805 5805 5804 5804 5804 5804 5803 5803 5803 5804 5804 5804 5805 5805 5806 5806 5806 5806 5806 5806 5806 5806 5806 5806 5806 5806 5806 5805
5805 5804 5803 5802 5802 5801 5801 5800 5800 5799 5799 5798 5798 5798 5797 5797 5796 5796 5797 5797 5797 5797 5798 5798 5798 5799 5799 5799 5799 5799 5799 5799 5800 5799 5799 5799 5799 5799
5800 5799 5798 5798 5797 5797 5796 5795 5794 5793 5793 5792 5791 5791 5791 5790 5790 5790 5790 5790 5790 5791 5791 5791 5791 5791 5792 5792 5792 5792 5792 5793 5793 5792 5792 5792 5791 5791
5796 5794 5793 5793 5792 5791 5790 5789 5789 5788 5787 5786 5785 5784 5784 5783 5783 5783 5783 5783 5783 5784 5784 5784 5784 5784 5784 5785 5785 5785 5785 5786 5786 5785 5784 5784 5784 5784
5791 5790 5788 5787 5786 5785 5784 5784 5783 5782 5781 5779 5779 5778 5777 5776 5775 5776 5776 5776 5776 5776 5777 5777 5777 5777 5777 5777 5778 5778 5778 5778 5778 5778 5777 5777 5776 5776
5786 5785 5783 5782 5781 5780 5779 5778 5777 5776 5775 5773 5772 5771 5771 5770 5769 5768 5768 5769 5769 5769 5769 5769 5770 5770 5770 5770 5770 5770 5770 5770 5770 5771 5770 5770 5769 5769
5781 5779 5778 5777 5775 5774 5773 5772 5772 5770 5769 5768 5767 5765 5765 5764 5763 5762 5761 5761 5762 5762 5762 5762 5762 5762 5762 5763 5763 5763 5763 5763 5763 5763 5763 5762 5762 5761
5775 5773 5772 5771 5769 5768 5767 5767 5766 5765 5764 5763 5761 5760 5759 5758 5757 5756 5754 5754 5754 5755 5754 5754 5754 5754 5755 5755 5755 5755 5755 5755 5755 5755 5755 5754 5754 5753
5769 5768 5766 5765 5763 5763 5762 5761 5761 5760 5759 5757 5756 5755 5753 5752 5751 5749 5748 5747 5747 5747 5746 5746 5746 5746 5746 5747 5747 5747 5747 5747 5747 5747 5746 5746 5746 5745
5763 5761 5760 5758 5758 5757 5757 5756 5755 5754 5753 5752 5750 5749 5748 5746 5744 5743 5742 5741 5740 5740 5739 5738 5738 5738 5738 5738 5738 5738 5738 5738 5738 5738 5738 5738 5737 5737
5757 5756 5754 5753 5752 5752 5751 5751 5750 5749 5748 5746 5745 5743 5742 5740 5738 5736 5735 5734 5733 5733 5732 5731 5730 5729 5730 5730 5730 5730 5730 5730 5730 5730 5730 5730 5729 5729
5751 5750 5749 5747 5747 5747 5746 5745 5744 5743 5742 5740 5739 5738 5736 5734 5732 5730 5728 5727 5726 5725 5724 5723 5722 5721 5721 5722 5722 5722 5722 5722 5722 5722 5723 5722 5722 5722
5746 5745 5744 5743 5742 5741 5740 5739 5738 5737 5736 5735 5733 5732 5730 5728 5726 5724 5722 5720 5718 5717 5716 5715 5715 5714 5714 5714 5715 5715 5715 5715 5715 5715 5715 5715 5715 5714
5741 5740 5739 5738 5737 5736 5735 5734 5733 5732 5730 5729 5728 5726 5724 5722 5719 5717 5715 5713 5712 5710 5709 5708 5708 5707 5707 5707 5707 5708 5708 5708 5707 5707 5707 5707 5707 5707
5735 5734 5733 5732 5732 5731 5730 5729 5728 5726 5725 5723 5722 5720 5718 5715 5713 5711 5709 5707 5706 5704 5703 5702 5701 5701 5700 5700 5700 5700 5700 5700 5700 5699 5699 5699 5699 5699
5729 5728 5728 5727 5726 5725 5724 5723 5723 5721 5719 5718 5716 5714 5712 5710 5708 5705 5703 5701 5700 5698 5697 5696 5695 5694 5693 5693 5693 5692 5692 5692 5691 5691 5691 5691 5691 5691
5722 5722 5722 5721 5720 5720 5719 5718 5717 5716 5714 5712 5710 5708 5707 5705 5703 5700 5698 5696 5694 5693 5691 5690 5689 5687 5687 5686 5686 5685 5684 5684 5683 5683 5683 5683 5683 5682
5716 5716 5715 5715 5714 5713 5713 5712 5711 5710 5709 5707 5705 5703 5701 5699 5697 5695 5693 5691 5689 5687 5685 5684 5682 5681 5680 5679 5678 5677 5676 5676 5675 5675 5675 5674 5674 5674
5710 5710 5709 5708 5707 5707 5706 5706 5705 5704 5703 5702 5700 5698 5696 5694 5692 5690 5688 5686 5684 5682 5680 5679 5677 5675 5674 5673 5672 5670 5669 5668 5668 5667 5667 5666 5666 5666
5705 5704 5703 5702 5702 5701 5700 5700 5699 5698 5697 5696 5695 5693 5692 5690 5688 5686 5684 5682 5679 5677 5675 5674 5672 5670 5668 5667 5666 5664 5663 5662 5661 5660 5660 5660 5659 5659
5699 5698 5697 5697 5696 5695 5694 5694 5693 5692 5692 5690 5689 5688 5686 5685 5683 5681 5679 5678 5675 5673 5671 5669 5667 5665 5663 5661 5660 5658 5657 5656 5655 5654 5654 5653 5653 5652
5693 5692 5692 5691 5690 5690 5689 5688 5687 5687 5686 5685 5684 5682 5681 5680 5678 5677 5675 5673 5671 5669 5666 5664 5662 5660 5658 5656 5654 5653 5652 5651 5650 5649 5649 5648 5647 5646